| time (UTC) | temp F | wind direction | speed MPH | gust MPH | rain 1hr in | rain 24hr in | rain mn in | humidity % | barometer mb |
| 20260504050732 | 68 | 90 | 0.0 | 1.0 | 0.00 | 0.00 | 0.00 | 51 | 1006.3 |
| 20260504050229 | 69 | 119 | 0.0 | 0.0 | 0.00 | 0.00 | 0.00 | 50 | 1006.7 |
| 20260504045726 | 69 | 119 | 0.0 | 0.0 | 0.00 | 0.00 | 0.00 | 49 | 1006.8 |
| 20260504045221 | 70 | 64 | 1.0 | 3.0 | 0.00 | 0.00 | 0.00 | 48 | 1006.7 |
| 20260504044719 | 70 | 49 | 1.0 | 1.0 | 0.00 | 0.00 | 0.00 | 48 | 1007.3 |
| 20260504044216 | 70 | 67 | 0.0 | 2.0 | 0.00 | 0.00 | 0.00 | 48 | 1007.1 |
| 20260504043713 | 70 | 37 | 1.0 | 2.0 | 0.00 | 0.00 | 0.00 | 48 | 1007.6 |
| 20260504043210 | 70 | 1 | 1.0 | 2.0 | 0.00 | 0.00 | 0.00 | 49 | 1007.6 |
| 20260504042708 | 71 | 21 | 0.0 | 0.0 | 0.00 | 0.00 | 0.00 | 48 | 1007.3 |
| 20260504042204 | 71 | 68 | 0.0 | 1.0 | 0.00 | 0.00 | 0.00 | 47 | 1007.6 |
| 20260504041700 | 70 | 69 | 0.0 | 1.0 | 0.00 | 0.00 | 0.00 | 47 | 1007.2 |
| 20260504041155 | 70 | 72 | 1.0 | 3.0 | 0.00 | 0.00 | 0.00 | 48 | 1007.1 |
| 20260504040653 | 70 | 26 | 0.0 | 1.0 | 0.00 | 0.00 | 0.00 | 50 | 1007.0 |
| 20260504040150 | 69 | 59 | 1.0 | 3.0 | 0.00 | 0.00 | 0.00 | 50 | 1007.3 |
| 20260504035646 | 69 | 75 | 0.0 | 0.0 | 0.00 | 0.00 | 0.00 | 51 | 1007.5 |
| 20260504035143 | 69 | 54 | 0.0 | 0.0 | 0.00 | 0.00 | 0.00 | 52 | 1007.4 |
| 20260504034641 | 68 | 61 | 0.0 | 1.0 | 0.00 | 0.00 | 0.00 | 53 | 1007.3 |
| 20260504034138 | 68 | 67 | 0.0 | 1.0 | 0.00 | 0.00 | 0.00 | 54 | 1007.3 |
| 20260504033635 | 68 | 70 | 0.0 | 0.0 | 0.00 | 0.00 | 0.00 | 54 | 1007.4 |
| 20260504033133 | 69 | 72 | 0.0 | 0.0 | 0.00 | 0.00 | 0.00 | 54 | 1007.5 |
| 20260504032629 | 69 | 61 | 0.0 | 0.0 | 0.00 | 0.00 | 0.00 | 51 | 1007.6 |
| 20260504032126 | 69 | 57 | 0.0 | 0.0 | 0.00 | 0.00 | 0.00 | 52 | 1007.6 |
| 20260504031624 | 69 | 57 | 0.0 | 0.0 | 0.00 | 0.00 | 0.00 | 51 | 1007.5 |
| 20260504031120 | 69 | 57 | 0.0 | 0.0 | 0.00 | 0.00 | 0.00 | 51 | 1007.5 |
| 20260504030616 | 69 | 58 | 0.0 | 0.0 | 0.00 | 0.00 | 0.00 | 51 | 1007.1 |
| 20260504030113 | 69 | 67 | 0.0 | 0.0 | 0.00 | 0.00 | 0.00 | 51 | 1007.3 |
| 20260504025610 | 69 | 68 | 0.0 | 0.0 | 0.00 | 0.00 | 0.00 | 50 | 1007.1 |
| 20260504025107 | 70 | 67 | 0.0 | 0.0 | 0.00 | 0.00 | 0.00 | 49 | 1007.6 |
| 20260504024604 | 70 | 65 | 0.0 | 0.0 | 0.00 | 0.00 | 0.00 | 49 | 1007.4 |
| 20260504024101 | 70 | 62 | 0.0 | 0.0 | 0.00 | 0.00 | 0.00 | 49 | 1007.4 |
| 20260504023557 | 70 | 66 | 0.0 | 0.0 | 0.00 | 0.00 | 0.00 | 49 | 1007.3 |
| 20260504023054 | 70 | 65 | 0.0 | 0.0 | 0.00 | 0.00 | 0.00 | 49 | 1007.3 |
| 20260504022550 | 69 | 63 | 0.0 | 0.0 | 0.00 | 0.00 | 0.00 | 49 | 1007.4 |
| 20260504022046 | 70 | 63 | 0.0 | 0.0 | 0.00 | 0.00 | 0.00 | 49 | 1007.5 |
| 20260504021543 | 70 | 57 | 0.0 | 0.0 | 0.00 | 0.00 | 0.00 | 49 | 1007.4 |
| 20260504021040 | 70 | 59 | 0.0 | 0.0 | 0.00 | 0.00 | 0.00 | 49 | 1007.3 |
| 20260504020537 | 70 | 66 | 0.0 | 0.0 | 0.00 | 0.00 | 0.00 | 49 | 1007.4 |
| 20260504020034 | 71 | 57 | 0.0 | 0.0 | 0.00 | 0.00 | 0.00 | 47 | 1007.3 |
| 20260504015530 | 71 | 60 | 0.0 | 0.0 | 0.00 | 0.00 | 0.00 | 47 | 1007.1 |
| 20260504015026 | 71 | 18 | 0.0 | 0.0 | 0.00 | 0.00 | 0.00 | 47 | 1007.4 |
| 20260504014523 | 71 | 17 | 0.0 | 0.0 | 0.00 | 0.00 | 0.00 | 47 | 1007.1 |
| 20260504014020 | 71 | 17 | 0.0 | 0.0 | 0.00 | 0.00 | 0.00 | 46 | 1007.2 |
| 20260504013518 | 71 | 17 | 0.0 | 0.0 | 0.00 | 0.00 | 0.00 | 48 | 1007.1 |
| 20260504013015 | 72 | 17 | 0.0 | 0.0 | 0.00 | 0.00 | 0.00 | 47 | 1007.0 |
| 20260504012512 | 72 | 17 | 0.0 | 0.0 | 0.00 | 0.00 | 0.00 | 47 | 1007.1 |
| 20260504012009 | 72 | 17 | 0.0 | 0.0 | 0.00 | 0.00 | 0.00 | 46 | 1007.1 |
| 20260504011506 | 72 | 17 | 0.0 | 0.0 | 0.00 | 0.00 | 0.00 | 45 | 1007.2 |
| 20260504011001 | 73 | 17 | 0.0 | 0.0 | 0.00 | 0.00 | 0.00 | 44 | 1007.1 |
| 20260504010458 | 73 | 17 | 0.0 | 0.0 | 0.00 | 0.00 | 0.00 | 44 | 1007.0 |
| 20260504005953 | 73 | 17 | 0.0 | 0.0 | 0.00 | 0.00 | 0.00 | 44 | 1007.3 |
| 20260504005451 | 73 | 17 | 0.0 | 0.0 | 0.00 | 0.00 | 0.00 | 46 | 1007.3 |
| 20260504004948 | 75 | 17 | 0.0 | 0.0 | 0.00 | 0.00 | 0.00 | 42 | 1007.3 |
| 20260504004446 | 75 | 17 | 0.0 | 0.0 | 0.00 | 0.00 | 0.00 | 41 | 1007.2 |
| 20260504003943 | 75 | 17 | 0.0 | 0.0 | 0.00 | 0.00 | 0.00 | 40 | 1007.1 |
| 20260504003439 | 75 | 17 | 0.0 | 1.0 | 0.00 | 0.00 | 0.00 | 40 | 1007.1 |
| 20260504002935 | 75 | 17 | 0.0 | 0.0 | 0.00 | 0.00 | 0.00 | 39 | 1007.1 |
| 20260504002433 | 75 | 17 | 0.0 | 0.0 | 0.00 | 0.00 | 0.00 | 40 | 1007.3 |
| 20260504001930 | 76 | 17 | 0.0 | 0.0 | 0.00 | 0.00 | 0.00 | 39 | 1007.3 |
| 20260504001427 | 76 | 17 | 0.0 | 0.0 | 0.00 | 0.00 | 0.00 | 38 | 1007.3 |
| 20260504000924 | 77 | 17 | 0.0 | 0.0 | 0.00 | 0.00 | 0.00 | 37 | 1007.2 |
| 20260504000423 | 77 | 16 | 0.0 | 0.0 | 0.00 | 0.00 | 0.00 | 36 | 1007.5 |
| 20260503235918 | 77 | 16 | 0.0 | 1.0 | 0.00 | 0.00 | 0.00 | 36 | 1007.6 |
| 20260503235416 | 77 | 17 | 1.0 | 1.0 | 0.00 | 0.00 | 0.00 | 36 | 1007.5 |
| 20260503234913 | 78 | 17 | 1.0 | 1.0 | 0.00 | 0.00 | 0.00 | 35 | 1007.5 |
| 20260503234411 | 78 | 17 | 1.0 | 1.0 | 0.00 | 0.00 | 0.00 | 35 | 1007.7 |
| 20260503233908 | 78 | 23 | 1.0 | 1.0 | 0.00 | 0.00 | 0.00 | 35 | 1007.8 |
| 20260503233405 | 78 | 24 | 1.0 | 1.0 | 0.00 | 0.00 | 0.00 | 36 | 1007.7 |
| 20260503232901 | 79 | 326 | 1.0 | 2.0 | 0.00 | 0.00 | 0.00 | 35 | 1007.7 |
| 20260503232358 | 79 | 42 | 0.0 | 0.0 | 0.00 | 0.00 | 0.00 | 37 | 1007.5 |
| 20260503231856 | 79 | 139 | 1.0 | 2.0 | 0.00 | 0.00 | 0.00 | 35 | 1007.7 |
| 20260503231353 | 79 | 335 | 1.0 | 1.0 | 0.00 | 0.00 | 0.00 | 36 | 1007.7 |
| 20260503230849 | 79 | 272 | 1.0 | 2.0 | 0.00 | 0.00 | 0.00 | 36 | 1007.9 |
| 20260503230346 | 79 | 274 | 2.0 | 2.0 | 0.00 | 0.00 | 0.00 | 35 | 1007.9 |
| 20260503225844 | 79 | 37 | 1.0 | 2.0 | 0.00 | 0.00 | 0.00 | 35 | 1007.8 |
| 20260503225339 | 80 | 352 | 1.0 | 2.0 | 0.00 | 0.00 | 0.00 | 35 | 1007.9 |
| 20260503224836 | 79 | 235 | 2.0 | 2.0 | 0.00 | 0.00 | 0.00 | 35 | 1008.1 |
| 20260503224333 | 80 | 298 | 1.0 | 3.0 | 0.00 | 0.00 | 0.00 | 35 | 1008.0 |
| 20260503223826 | 80 | 307 | 2.0 | 2.0 | 0.00 | 0.00 | 0.00 | 36 | 1007.8 |
| 20260503223323 | 80 | 19 | 2.0 | 2.0 | 0.00 | 0.00 | 0.00 | 34 | 1007.9 |
| 20260503222818 | 80 | 273 | 2.0 | 3.0 | 0.00 | 0.00 | 0.00 | 34 | 1008.1 |
| 20260503222317 | 80 | 269 | 2.0 | 3.0 | 0.00 | 0.00 | 0.00 | 36 | 1008.1 |
| 20260503221815 | 80 | 254 | 1.0 | 2.0 | 0.00 | 0.00 | 0.00 | 35 | 1008.1 |
| 20260503221313 | 80 | 273 | 2.0 | 3.0 | 0.00 | 0.00 | 0.00 | 36 | 1008.0 |
| 20260503220809 | 80 | 273 | 1.0 | 2.0 | 0.00 | 0.00 | 0.00 | 35 | 1008.2 |
| 20260503220306 | 81 | 256 | 1.0 | 2.0 | 0.00 | 0.00 | 0.00 | 34 | 1008.2 |
| 20260503215802 | 80 | 18 | 1.0 | 2.0 | 0.00 | 0.00 | 0.00 | 35 | 1008.3 |
| 20260503215259 | 80 | 315 | 4.0 | 5.0 | 0.00 | 0.00 | 0.00 | 35 | 1008.3 |
| 20260503214757 | 80 | 218 | 2.0 | 5.0 | 0.00 | 0.00 | 0.00 | 35 | 1008.3 |
| 20260503214254 | 80 | 27 | 2.0 | 3.0 | 0.00 | 0.00 | 0.00 | 36 | 1008.6 |
| 20260503213752 | 80 | 27 | 0.0 | 2.0 | 0.00 | 0.00 | 0.00 | 35 | 1008.4 |
| 20260503213249 | 80 | 252 | 3.0 | 3.0 | 0.00 | 0.00 | 0.00 | 35 | 1008.6 |
| 20260503212745 | 80 | 217 | 2.0 | 3.0 | 0.00 | 0.00 | 0.00 | 34 | 1008.6 |
| 20260503212243 | 80 | 258 | 3.0 | 3.0 | 0.00 | 0.00 | 0.00 | 34 | 1008.6 |
| 20260503211741 | 80 | 253 | 1.0 | 2.0 | 0.00 | 0.00 | 0.00 | 35 | 1008.5 |
| 20260503211237 | 80 | 250 | 2.0 | 2.0 | 0.00 | 0.00 | 0.00 | 35 | 1008.6 |
| 20260503210732 | 81 | 285 | 1.0 | 2.0 | 0.00 | 0.00 | 0.00 | 36 | 1008.9 |
| 20260503210230 | 80 | 225 | 0.0 | 2.0 | 0.00 | 0.00 | 0.00 | 35 | 1008.9 |
| 20260503205725 | 81 | 263 | 2.0 | 3.0 | 0.00 | 0.00 | 0.00 | 35 | 1008.8 |
| 20260503205221 | 80 | 298 | 1.0 | 2.0 | 0.00 | 0.00 | 0.00 | 35 | 1008.9 |
| 20260503204718 | 81 | 218 | 2.0 | 2.0 | 0.00 | 0.00 | 0.00 | 35 | 1008.9 |
| 20260503204216 | 81 | 229 | 0.0 | 0.0 | 0.00 | 0.00 | 0.00 | 35 | 1009.3 |
| 20260503203713 | 81 | 215 | 0.0 | 3.0 | 0.00 | 0.00 | 0.00 | 34 | 1009.4 |
| 20260503203211 | 81 | 47 | 0.0 | 0.0 | 0.00 | 0.00 | 0.00 | 36 | 1009.4 |
| 20260503202708 | 80 | 230 | 2.0 | 3.0 | 0.00 | 0.00 | 0.00 | 35 | 1009.3 |
| 20260503202205 | 80 | 256 | 3.0 | 6.0 | 0.00 | 0.00 | 0.00 | 35 | 1009.5 |
| 20260503201703 | 80 | 264 | 2.0 | 2.0 | 0.00 | 0.00 | 0.00 | 37 | 1009.2 |
| 20260503201200 | 80 | 224 | 3.0 | 3.0 | 0.00 | 0.00 | 0.00 | 36 | 1009.5 |
| 20260503200651 | 80 | 220 | 2.0 | 3.0 | 0.00 | 0.00 | 0.00 | 37 | 1009.4 |
| 20260503200147 | 80 | 205 | 0.0 | 2.0 | 0.00 | 0.00 | 0.00 | 37 | 1009.4 |
| 20260503195644 | 80 | 149 | 0.0 | 2.0 | 0.00 | 0.00 | 0.00 | 37 | 1009.6 |
| 20260503195141 | 80 | 236 | 2.0 | 2.0 | 0.00 | 0.00 | 0.00 | 41 | 1009.8 |
| 20260503194638 | 79 | 231 | 3.0 | 3.0 | 0.00 | 0.00 | 0.00 | 39 | 1010.0 |
| 20260503194134 | 78 | 151 | 0.0 | 5.0 | 0.00 | 0.00 | 0.00 | 39 | 1009.9 |
| 20260503193632 | 79 | 238 | 3.0 | 5.0 | 0.00 | 0.00 | 0.00 | 39 | 1009.8 |
| 20260503193126 | 78 | 139 | 0.0 | 2.0 | 0.00 | 0.00 | 0.00 | 40 | 1010.0 |
| 20260503192617 | 78 | 212 | 2.0 | 3.0 | 0.00 | 0.00 | 0.00 | 40 | 1010.1 |
| 20260503192112 | 78 | 272 | 2.0 | 2.0 | 0.00 | 0.00 | 0.00 | 39 | 1010.0 |
| 20260503191609 | 78 | 153 | 0.0 | 1.0 | 0.00 | 0.00 | 0.00 | 41 | 1010.0 |
| 20260503191106 | 78 | 250 | 1.0 | 3.0 | 0.00 | 0.00 | 0.00 | 40 | 1010.2 |
| 20260503190604 | 77 | 229 | 1.0 | 3.0 | 0.00 | 0.00 | 0.00 | 41 | 1010.2 |
| 20260503185557 | 76 | 221 | 2.0 | 5.0 | 0.00 | 0.00 | 0.00 | 40 | 1010.4 |
| 20260503185057 | 77 | 248 | 3.0 | 5.0 | 0.00 | 0.00 | 0.00 | 40 | 1010.5 |
| 20260503184552 | 77 | 235 | 3.0 | 5.0 | 0.00 | 0.00 | 0.00 | 41 | 1010.6 |
| 20260503184049 | 77 | 298 | 0.0 | 1.0 | 0.00 | 0.00 | 0.00 | 41 | 1010.4 |
| 20260503183546 | 76 | 186 | 1.0 | 2.0 | 0.00 | 0.00 | 0.00 | 42 | 1010.6 |
| 20260503183043 | 77 | 229 | 3.0 | 5.0 | 0.00 | 0.00 | 0.00 | 41 | 1010.9 |
| 20260503182541 | 76 | 257 | 2.0 | 3.0 | 0.00 | 0.00 | 0.00 | 41 | 1010.7 |
| 20260503182039 | 75 | 244 | 2.0 | 6.0 | 0.00 | 0.00 | 0.00 | 43 | 1010.8 |
| 20260503181536 | 75 | 196 | 2.0 | 5.0 | 0.00 | 0.00 | 0.00 | 44 | 1010.8 |
| 20260503181032 | 75 | 236 | 5.0 | 6.0 | 0.00 | 0.00 | 0.00 | 42 | 1011.0 |
| 20260503180530 | 75 | 234 | 2.0 | 2.0 | 0.00 | 0.00 | 0.00 | 42 | 1011.3 |
| 20260503180026 | 75 | 228 | 1.0 | 3.0 | 0.00 | 0.00 | 0.00 | 42 | 1011.3 |
| 20260503175524 | 74 | 173 | 3.0 | 5.0 | 0.00 | 0.00 | 0.00 | 42 | 1011.3 |
| 20260503175020 | 74 | 214 | 3.0 | 3.0 | 0.00 | 0.00 | 0.00 | 42 | 1011.4 |
| 20260503174518 | 74 | 215 | 3.0 | 5.0 | 0.00 | 0.00 | 0.00 | 44 | 1011.4 |
| 20260503174014 | 74 | 249 | 3.0 | 10.0 | 0.00 | 0.00 | 0.00 | 43 | 1011.3 |
| 20260503173509 | 73 | 311 | 2.0 | 6.0 | 0.00 | 0.00 | 0.00 | 44 | 1011.4 |
| 20260503173006 | 73 | 278 | 3.0 | 6.0 | 0.00 | 0.00 | 0.00 | 43 | 1011.5 |
| 20260503172504 | 73 | 207 | 2.0 | 8.0 | 0.00 | 0.00 | 0.00 | 43 | 1011.9 |
| 20260503172000 | 72 | 288 | 2.0 | 3.0 | 0.00 | 0.00 | 0.00 | 43 | 1011.5 |
| 20260503171456 | 73 | 260 | 3.0 | 5.0 | 0.00 | 0.00 | 0.00 | 44 | 1011.5 |
| 20260503170954 | 73 | 253 | 2.0 | 6.0 | 0.00 | 0.00 | 0.00 | 43 | 1011.6 |
| 20260503170450 | 73 | 236 | 2.0 | 3.0 | 0.00 | 0.00 | 0.00 | 43 | 1011.5 |
| 20260503150843 | 64 | 219 | 5.0 | 6.0 | 0.00 | 0.00 | 0.00 | 50 | 1012.7 |
| 20260503150339 | 64 | 203 | 3.0 | 5.0 | 0.00 | 0.00 | 0.00 | 50 | 1012.8 |
| 20260503140303 | 59 | 137 | 1.0 | 6.0 | 0.00 | 0.00 | 0.00 | 52 | 1013.0 |
| 20260503131232 | 56 | 231 | 6.0 | 7.0 | 0.00 | 0.00 | 0.00 | 51 | 1013.9 |
| 20260503130730 | 56 | 234 | 4.0 | 6.0 | 0.00 | 0.00 | 0.00 | 50 | 1013.7 |
| 20260503130227 | 56 | 131 | 2.0 | 3.0 | 0.00 | 0.00 | 0.00 | 51 | 1013.8 |
| 20260503120148 | 53 | 183 | 1.0 | 3.0 | 0.00 | 0.00 | 0.00 | 49 | 1013.4 |
| 20260503110610 | 52 | 188 | 0.0 | 0.0 | 0.00 | 0.00 | 0.00 | 51 | 1013.8 |
| 20260503110107 | 52 | 108 | 0.0 | 1.0 | 0.00 | 0.00 | 0.00 | 51 | 1013.6 |
| 20260503090450 | 52 | 106 | 0.0 | 0.0 | 0.00 | 0.00 | 0.00 | 51 | 1015.0 |
| 20260503081411 | 53 | 102 | 0.0 | 0.0 | 0.00 | 0.00 | 0.00 | 49 | 1014.9 |
| 20260503080908 | 53 | 108 | 0.0 | 0.0 | 0.00 | 0.00 | 0.00 | 50 | 1015.2 |
| 20260503080404 | 53 | 119 | 0.0 | 0.0 | 0.00 | 0.00 | 0.00 | 49 | 1014.9 |
| 20260503072841 | 52 | 102 | 0.0 | 0.0 | 0.00 | 0.00 | 0.00 | 50 | 1015.1 |
| 20260503072338 | 52 | 77 | 0.0 | 1.0 | 0.00 | 0.00 | 0.00 | 51 | 1015.3 |
| 20260503071834 | 52 | 119 | 0.0 | 0.0 | 0.00 | 0.00 | 0.00 | 51 | 1015.4 |
| 20260503071331 | 52 | 88 | 0.0 | 2.0 | 0.00 | 0.00 | 0.00 | 51 | 1015.2 |
| 20260503070827 | 52 | 94 | 0.0 | 1.0 | 0.00 | 0.00 | 0.00 | 51 | 1015.4 |
| 20260503070320 | 52 | 114 | 0.0 | 0.0 | 0.00 | 0.00 | 0.00 | 51 | 1015.5 |
| 20260503060239 | 53 | 111 | 0.0 | 0.0 | 0.00 | 0.00 | 0.00 | 50 | 1016.0 |
| 20260503054726 | 53 | 79 | 0.0 | 0.0 | 0.00 | 0.00 | 0.00 | 48 | 1016.0 |
| 20260503054223 | 53 | 139 | 0.0 | 0.0 | 0.00 | 0.00 | 0.00 | 48 | 1016.3 |
| 20260503053721 | 53 | 89 | 0.0 | 0.0 | 0.00 | 0.00 | 0.00 | 49 | 1016.5 |
| 20260503053220 | 53 | 100 | 0.0 | 0.0 | 0.00 | 0.00 | 0.00 | 48 | 1016.3 |
| 20260503052715 | 53 | 77 | 0.0 | 0.0 | 0.00 | 0.00 | 0.00 | 48 | 1016.1 |
| 20260503052212 | 53 | 86 | 0.0 | 0.0 | 0.00 | 0.00 | 0.00 | 49 | 1016.3 |
| 20260503051707 | 53 | 114 | 0.0 | 0.0 | 0.00 | 0.00 | 0.00 | 49 | 1016.4 |
| 20260503051205 | 53 | 104 | 0.0 | 0.0 | 0.00 | 0.00 | 0.00 | 49 | 1016.6 |